Location: Cabeza de los Veneras
(40.2000°N, 5.2000°W)
Time: 03:36:18
(UTC+00:00)

SJ-6B - Pass Details

Date: 18 April 2024
Orbit: 489 x 550 km, 97.4° (Epoch: 25 May)

Event Time Altitude Azimuth Distance (km) Brightness Sun altitude
Rises 20:10:54 0° 186° (S) 2,705 6.1 -12.9°
Reaches altitude 10° 20:13:08 10° 195° (SSW) 1,822 5.3 -13.3°
Maximum altitude 20:16:47 36° 263° (W) 890 4.4 -13.9°
Drops below altitude 10° 20:20:29 10° 330° (NNW) 1,842 6.4 -14.5°
Sets 20:22:46 0° 339° (NNW) 2,740 7.2 -14.9°
